This demonstration page uses our WeatherBlox Daily Observations layout. Learn more.

Left ArrowRight Arrow

31.84235, -102.49876

Hourly Observations for May 30, 2015

Temp ( °F °C ) Dew Point ( °F °C ) Humidity (%) Winds ( mph kmh ) Pressure ( in mb ) Visibility ( mi km ) Precip ( " mm )
12:46 am 00:46 Mostly Cloudy with Nearby Thunderstorms 73 22.8 65 18.3 76 76 ENE 8 13 29.94 1014 8 13 0.00 0.00
12:53 am 00:53 Mostly Cloudy with Nearby Thunderstorms 68 20 55 12.8 63 63 NNE 22 35 29.98 1015 7 11 0.00 0.00
12:58 am 00:58 Mostly Cloudy 66 18.9 55 12.8 68 68 NE 23 37 30.00 1016 8 13 0.00 0.00
1:04 am 01:04 Mostly Cloudy with Nearby Thunderstorms 65 18.3 55 12.8 70 70 NE 30 48 30.00 1016 9 14 0.00 0.00
1:17 am 01:17 Cloudy with Nearby Thunderstorms 64 17.8 54 12.2 70 70 NE 18 30 30.00 1016 10 16 0.00 0.00
1:41 am 01:41 Mostly Cloudy 63 17.2 54 12.2 73 73 E 21 33 29.97 1015 10 16 0.00 0.00
1:53 am 01:53 Mostly Cloudy 63 17.2 55 12.8 76 76 E 16 26 29.97 1015 10 16 0.00 0.00
2:53 am 02:53 Clear 62 16.7 56 13.3 80 80 E 10 17 29.96 1015 10 16 0.00 0.00
3:53 am 03:53 Mostly Clear 62 16.7 56 13.3 80 80 ESE 7 11 29.96 1015 10 16 0.00 0.00
4:53 am 04:53 Mostly Clear 61 16.1 57 13.9 87 87 NNE 8 13 29.99 1016 10 16 0.00 0.00
5:43 am 05:43 Cloudy with Nearby Thunderstorms 63 17.2 56 13.3 78 78 Calm 30.06 1018 10 16 0.00 0.03
5:53 am 05:53 Cloudy with Nearby Thunderstorms 63 17.2 56 13.3 78 78 N 10 17 30.04 1017 10 16 0.00 0.03
6:02 am 06:02 Cloudy with Thunderstorms 63 17.2 56 13.3 78 78 N 14 22 30.09 1019 10 16 0.00 0.03
6:30 am 06:30 Cloudy with Nearby Thunderstorms 61 16.1 57 13.9 87 87 N 16 26 30.09 1019 5 8 0.09 2.29
6:53 am 06:53 Windy with Storms Likely 61 16.1 56 13.3 84 84 N 22 35 30.10 1019 10 16 0.10 2.54
7:09 am 07:09 Cloudy with Light Rain 62 16.7 55 12.8 78 78 N 16 26 30.15 1021 10 16 0.00 0.03
7:34 am 07:34 Cloudy with Nearby Thunderstorms 62 16.7 56 13.3 80 80 N 18 30 30.15 1021 10 16 0.01 0.25
7:53 am 07:53 Cloudy with Thunderstorms 61 16.1 56 13.3 84 84 N 16 26 30.12 1020 8 13 0.03 0.76
8:10 am 08:10 Cloudy with Rain 61 16.1 56 13.3 84 84 N 10 17 30.18 1022 7 11 0.03 0.76
8:17 am 08:17 Cloudy with Thunderstorms 60 15.6 56 13.3 86 86 NNE 12 19 30.18 1022 7 11 0.05 1.27
8:32 am 08:32 Cloudy with Rain 60 15.6 55 12.8 84 84 NNE 7 11 30.18 1022 6 10 0.09 2.29
8:53 am 08:53 Cloudy with Rain 60 15.6 56 13.3 86 86 Calm 30.16 1021 3 4 0.14 3.56
9:10 am 09:10 Cloudy with Rain 60 15.6 56 13.3 86 86 SE 17 28 30.12 1020 3 5 0.05 1.27
9:53 am 09:53 Partly Cloudy 62 16.7 55 12.8 78 78 SE 10 17 30.04 1017 10 16 0.07 1.78
10:53 am 10:53 Sunny 67 19.4 57 13.9 71 71 NNW 6 9 30.05 1018 10 16 0.00 0.00
11:53 am 11:53 Sunny 72 22.2 58 14.4 61 61 NNE 15 24 30.08 1019 10 16 0.00 0.00
12:53 pm 12:53 Sunny 73 22.8 57 13.9 57 57 NE 13 20 30.09 1019 10 16 0.00 0.00
1:53 pm 13:53 Mostly Cloudy 73 22.8 58 14.4 59 59 ENE 14 22 30.10 1019 10 16 0.00 0.00
2:53 pm 14:53 Mostly Sunny 76 24.4 58 14.4 54 54 NE 13 20 30.09 1019 10 16 0.00 0.00
3:53 pm 15:53 Mostly Cloudy 76 24.4 57 13.9 52 52 NE 10 17 30.06 1018 10 16 0.00 0.00
4:53 pm 16:53 Partly Cloudy 78 25.6 57 13.9 48 48 ENE 10 17 30.06 1018 10 16 0.00 0.00
5:53 pm 17:53 Mostly Cloudy 76 24.4 59 15 56 56 ENE 12 19 30.04 1017 10 16 0.00 0.00
6:53 pm 18:53 Sunny 75 23.9 59 15 58 58 ENE 14 22 30.03 1017 10 16 0.00 0.00
7:53 pm 19:53 Mostly Sunny 72 22.2 59 15 64 64 ENE 14 22 30.04 1017 10 16 0.00 0.00
8:53 pm 20:53 Clear 67 19.4 59 15 76 76 ENE 12 19 30.06 1018 10 16 0.00 0.00
9:53 pm 21:53 Clear 64 17.8 59 15 84 84 ENE 10 17 30.09 1019 10 16 0.00 0.00
10:53 pm 22:53 Clear 63 17.2 58 14.4 84 84 E 6 9 30.11 1020 10 16 0.00 0.00
11:53 pm 23:53 Hazy 63 17.2 58 14.4 84 84 E 7 11 30.12 1020 6 10 0.00 0.00

Powered by AerisWeather